www.pogodaiklimat.ru

Погода и климат >> Архив погоды >> Мальдивы >> Gan


ПОГОДА в Gan

  • Прогноз погоды в Gan
  • Монитор погоды в Gan
  • Климат города

АРХИВ ПОГОДЫ в Gan

Время (UTC), дата Ветер
(напр.,м/с)
 
Видим.   Явления Облачность Т
(С)
Тd
(С)
f
(%)
Тe
(С)
Тes
(С)
Комфортность P
(гПа)
Po
(гПа)
Тmin
(С)
Tmax
(С)
R
(мм)
R24
(мм)
S
(см)
06 8.08 ЮЗ 3 12 км 8/3 540 м
[Cu med, cong Ci fib]
+30.4 +24.5 71 +43 +52 опасность
перегрева
1011.3 1011.1
09 8.08 ЮЗ 4 12 км 8/3 540 м
[Cu med, cong Ci fib]
+30.4 +24.7 72 +43 +50 опасность
перегрева
1009.5 1009.3
12 8.08 Ю 3 12 км 8/3 540 м
[Cu med, cong Ci fib]
+28.5 +24.6 79 +40 +41 очень
душно
1009.5 1009.3 +31.0
15 8.08 ЮЗ 2 10 км 8/3 540 м
[Cu med, cong Ci fib]
+27.4 +24.8 86 +39 +39 очень
душно
1011.4 1011.2
18 8.08 нст 1 10 км 8/3 540 м
[Cu med, cong Ci fib]
+26.6 +24.9 90 +38 +38 очень
душно
1011.9 1011.7
21 8.08 ЮЗ 3 10 км 8/3 540 м
[Cu med, cong Ci sp]
+27.4 +23.6 80 +37 +37 очень
душно
1010.8 1010.6
00 9.08 Ю 2 10 км 8/3 540 м
[Cu med, cong Ci sp]
+26.9 +23.2 80 +36 +36 очень
душно
1010.8 1010.6
03 9.08 Ю 2 15 км 4/1 540 м
[Cu hum Ci fib]
+28.6 +23.8 75 +39 +43 очень
душно
1012.2 1012.0 +25.7
06 9.08 ЮЗ 3 15 км 5/3 570 м
[Cu hum Ci fib]
+30.0 +24.1 71 +42 +52 опасность
перегрева
1012.6 1012.4
09 9.08 ЮЗ 3 15 км 9/5 540 м
[Cu med, cong Ci fib]
+30.3 +23.8 68 +41 +47 опасность
перегрева
1011.0 1010.8
12 9.08 Ю 3 15 км 9/3 540 м
[Cu med, cong Ci sp]
+29.6 +23.8 71 +41 +42 опасность
перегрева
1011.1 1010.9 +31.0
15 9.08 Ю 3 15 км 9/3 540 м
[Cu med, cong Ci sp]
+27.6 +23.2 77 +37 +37 очень
душно
1012.8 1012.6
18 9.08 нст 1 15 км 6/3 540 м
[Cu med, cong Ci fib]
+26.2 +23.3 84 +35 +35 очень
душно
1013.9 1013.7
21 9.08 штиль 0 10 км 6/1 540 м
[Cu hum Ci sp]
+25.0 +23.5 91 +34 +34 очень
душно
1012.3 1012.1
00 10.08 нст 1 10 км 6/3 540 м
[Cu med, cong Ci sp]
+25.1 +23.3 90 +34 +34 очень
душно
1012.2 1012.0
03 10.08 нст 1 15 км 6/3 540 м
[Cu med, cong Ci sp]
+28.0 +23.6 77 +38 +42 очень
душно
1013.9 1013.7 +23.9
06 10.08 ЮЗ 3 15 км 4/1 540 м
[Cu hum Ci fib]
+30.0 +23.6 69 +41 +55 опасность
перегрева
1014.5 1014.3
12 10.08 нст 1 15 км 5/1 540 м
[Cu med, cong Ci sp]
+29.5 +22.9 68 +39 +41 очень
душно
1012.0 1011.8 +30.8
15 10.08 нст 1 15 км 8/1 540 м
[Cu hum Ci fib]
+26.6 +23.1 81 +36 +36 очень
душно
1013.6 1013.4
18 10.08 Ю 3 15 км 8/3 540 м
[Cu med, cong Ci fib]
+27.3 +23.2 78 +37 +37 очень
душно
1015.1 1014.9
21 10.08 Ю 3 10 км 9/3 540 м
[Cu med, cong Ci sp]
+27.4 +22.4 74 +36 +36 очень
душно
1013.1 1012.9
03 11.08 Ю 3 10 км 6/3 540 м
[Cu med, cong Ci sp]
+28.6 +24.3 78 +40 +43 очень
душно
1013.9 1013.7 +24.4
06 11.08 Ю 4 12 км 9/3 540 м
[Cu med, cong Ci sp]
+30.0 +24.0 70 +41 +49 опасность
перегрева
1013.8 1013.6
09 11.08 Ю 4 12 км 9/3 540 м
[Cu med, cong Ci sp]
+30.2 +23.9 69 +42 +48 опасность
перегрева
1011.8 1011.6
12 11.08 Ю 3 12 км 9/3 540 м
[Cu med, cong Ci sp]
+29.0 +23.8 74 +40 +41 очень
душно
1011.4 1011.2 +31.0
15 11.08 Ю 3 12 км 9/4 500 м
[Cb cap Ci sp]
+28.4 +24.4 79 +40 +40 очень
душно
1013.1 1012.9
18 11.08 Ю 3 12 км 9/3 540 м
[Cu med, cong Ci sp]
+27.8 +24.0 80 +39 +39 очень
душно
1014.1 1013.9
21 11.08 Ю 4 10 км 9/3 540 м
[Cu med, cong Ci sp]
+27.6 +23.5 78 +37 +37 очень
душно
1012.1 1011.9
00 12.08 Ю 5 12 км 8/3 540 м
[Cu med, cong Ci sp]
+27.6 +23.2 77 +37 +37 очень
душно
1010.9 1010.7
03 12.08 Ю 6 12 км 8/3 540 м
[Cu med, cong Ci fib]
+28.5 +24.3 78 +40 +41 очень
душно
1012.3 1012.1 +27.0
06 12.08 Ю 6 10 км в посл. час ливневой дождь 9/4 500 м
[Cb cap Ci fib]
+29.4 +23.9 72 +40 +45 очень
душно
1012.8 1012.6 0.0
09 12.08 Ю 5 10 км 8/4 540 м
[Cu med, cong Ci sp]
+30.7 +25.0 72 +44 +48 опасность
перегрева
1010.5 1010.3
12 12.08 Ю 5 12 км 8/4 500 м
[Cb calv Ci sp]
+29.4 +24.5 75 +42 +42 опасность
перегрева
1010.0 1009.8 +31.6 0.0
15 12.08 Ю 5 10 км в посл. час ливневой дождь 9/4 500 м
[Cb cap Ci sp]
+27.2 +24.8 87 +39 +39 очень
душно
1011.8 1011.6
18 12.08 Ю 5 10 км {ливн. осадки} 9/4 500 м
[Cb cap Ci sp]
+28.0 +24.3 80 +39 +39 очень
душно
1012.7 1012.5 4
21 12.08 Ю 5 10 км 9/3 540 м
[Cu med, cong Ci sp]
+27.6 +23.7 79 +38 +38 очень
душно
1010.9 1010.7
00 13.08 Ю 6 12 км 9/3 540 м
[Cu med, cong Ci sp]
+27.8 +23.7 78 +38 +38 очень
душно
1010.5 1010.3 4
03 13.08 Ю 7 10 км 9/4 500 м
[Cb calv Ci sp]
+28.6 +24.9 80 +41 +42 опасность
перегрева
1011.7 1011.5 +24.5
06 13.08 Ю 7 9000 м в посл. час ливневой дождь 9/4 500 м
[Cu med, cong Ac cuf Ci sp]
+29.0 +25.8 83 +43 +45 опасность
перегрева
1012.1 1011.9 2
12 13.08 Ю 6 10 км 9/4 500 м
[Cu med, cong Ac cuf Ci sp]
+29.0 +23.8 74 +40 +40 очень
душно
1009.9 1009.7 +30.8 2
15 13.08 Ю 7 3000 м ливневой дождь 9/6 450 м
[Cb cap]
+25.0 +24.9 99 +35 +35 очень
душно
1012.6 1012.4
18 13.08 Ю 6 9000 м в посл. час ливневой дождь 9/5 480 м
[Cb cap Ac cuf Ci sp]
+26.9 +24.3 86 +38 +38 очень
душно
1012.4 1012.2 13
21 13.08 Ю 8 10 км 9/4 500 м
[Cu med, cong Ac cuf Ci sp]
+27.7 +23.8 79 +38 +38 очень
душно
1010.2 1010.0
00 14.08 Ю 8 10 км 9/4 540 м
[Cu med, cong Ac cuf Ci sp]
+28.0 +23.3 76 +38 +38 очень
душно
1009.7 1009.5 13
03 14.08 Ю 7 10 км 9/3 500 м
[Cu med, cong Ac cuf]
+28.5 +23.3 73 +38 +39 очень
душно
1011.5 1011.3 +24.0
06 14.08 Ю 7 10 км 9/3 540 м
[Cu med, cong Ci sp]
+30.5 +24.3 70 +43 +46 опасность
перегрева
1011.9 1011.7
09 14.08 Ю 6 10 км 9/4 500 м
[Cb cap Ac cuf Cs]
+30.0 +24.9 74 +43 +45 опасность
перегрева
1010.4 1010.2
12 14.08 Ю 5 9000 м 10/3 540 м
[Cu med, cong Ac trans Cs]
+29.0 +24.1 75 +40 +41 очень
душно
1010.3 1010.1 +31.3
15 14.08 Ю 6 7000 м слабый ливневой дождь 10/5 480 м
[Cb cap Ac cuf Cs]
+26.6 +26.3 98 +40 +40 очень
душно
1011.7 1011.5
18 14.08 Ю 7 10 км {ливн. осадки} 10/4 480 м
[Cb cap Ac cuf Cs]
+26.9 +24.6 87 +38 +38 очень
душно
1011.9 1011.7 0.6
21 14.08 Ю 5 10 км зарница {ливн. осадки} 9/5 500 м
[Cb cap Ac cuf Cs]
+26.6 +24.3 87 +37 +37 очень
душно
1011.2 1011.0
00 15.08 Ю 4 10 км 9/3 540 м
[Cu med, cong Ci sp]
+26.5 +24.3 88 +37 +37 очень
душно
1010.6 1010.4 0.6
03 15.08 ЮВ 3 10 км в посл. час ливневой дождь 9/5 480 м
[Cb cap Ac cuf Cs]
+26.5 +24.0 86 +37 +38 очень
душно
1012.1 1011.9 +24.5

 

Местоположение метеостанции Gan (Мальдивы): широта -0.68 долгота 73.15 высота над уровнем моря 2 м.

В архиве по умолчанию представлена погода в Gan за последнюю неделю. Архивные данные за месяц целиком и за предыдущие месяцы, начиная с января 2011 года, Вы можете получить, выбрав интересующий диапазон дат из раскрывающегося списка и нажав кнопку "Ввод!".


*Определитесь, кто Вы:
робот инопланетянин человек

Внимание! Время в таблицах - всемирное. Для получения местного времени необходимо прибавить поправку, которая в Gan равна 5 ч.

Смотрите также архив погоды в соседних городах и на ближайших метеорологических станциях:

Погода в Kaadedhdhoo (Мальдивы) (130 км)
Погода в Kadhdhoo (Мальдивы) (287 км)
Погода в Male (Мальдивы) (544 км)
Погода в Hanimaadhoo (Мальдивы) (824 км)
Погода в Minicoy (Lakshadweep, Индия) (999 км)
Погода в Galle (Шри Ланка) (1083 км)
Погода в Kanyakumari (Tamil Nadu, Индия) (1087 км)
Погода в Thiruvananthapuram Air (Kerala, Индия) (1101 км)
Погода в Thiruvananthapuram (Kerala, Индия) (1102 км)
Погода в Ratmalana (Шри Ланка) (1120 км)

Пояснения к столбцам:

Ветер - указаны скорость ветра в м/с - средняя за 10 мин, порывы в срок и между сроками (в фигурных скобках) и направление, откуда дует ветер: С - северный, СВ - северо-восточный, В - восточный, ЮВ - юго-восточный, Ю - южный, ЮЗ - юго-западный, З - западный, СЗ - северо-западный.
Видимость - горизонтальная дальность видимости в метрах или километрах. При видимости от 1 до 10 км при отсутствии осадков обычно наблюдается дымка, при ухудшении видимости до 1 км и менее - туман. В сухую погоду видимость может ухудшаться дымом, пылью или мглою.
Явления - указаны атмосферные явления, наблюдавшиеся в срок или в последний час перед сроком; фигурными скобками обозначены явления, наблюдавшиеся между сроками (за 1-3 часа до срока); квадратными скобками обозначены град или гололедные отложения с указанием их диаметра в мм.
Облачность - указаны через наклонную черту общая и нижняя облачность в баллах и высота нижней границы облаков в метрах; квадратными скобками обозначены формы облаков: Ci - перистые, Cs - перисто-слоистые, Cc - перисто-кучевые, Ac - высококучевые, As - высокослоистые, Sc - слоисто-кучевые, Ns - слоисто-дождевые, Cu - кучевые, Cb - кучево-дождевые. Подробнее классификацию облаков см. в Атласе облаков (PDF).
T - Температура воздуха - температура, измеренная на высоте 2 м над землей.
Td - Температура точки росы - температура, при понижении до которой содержащийся в воздухе водяной пар достигнет насыщения.
f - Относительная влажность воздуха - влажноcть воздуха, измеренная на высоте 2 м над землей.
Te - Эффективная температура - температура, которую ощущает одетый по сезону человек в тени. Характеристика душности погоды. При расчете учитывается влияние влажности воздуха и скорости ветра на теплоощущения человека.
Tes - Эффективная температура на солнце - температура, которую ощущает человек, с поправкой на солнечный нагрев. Характеристика знойности погоды. Зависит от высоты солнца над горизонтом, облачности и скорости ветра. Ночью, в пасмурную погоду, а также при ветре 12 м/с и более поправка равна нулю.
P - Атмосферное давление - приведенное к уровню моря атмосферное давление.
Po - Атмосферное давление - измеренное на уровне метеостанции атмосферное давление.
Tmin - Минимальная температура - минимум температуры воздуха на высоте 2 м над землей.
Tmax - Максимальная температура - максимум температуры воздуха на высоте 2 м над землей.
R - Количество осадков - Количество выпавших осадков за период времени, мм. При наведении курсора мыши на число - период времени, за который выпало указанное количество осадков.
R24 - Количество осадков - Количество выпавших осадков за 24 часа, мм.
S - Снежный покров - Высота снежного покрова, см. При наведении курсора мыши на число - состояние снежного покрова и степень покрытия местности в баллах.